FW7746 Weather Reports


time (UTC)temp
C
wind
direction
speed
KPH
gust
KPH
rain 1hr
cm
rain 24hr
cm
rain mn
cm
humidity
%
barometer
mb
20260506151104 13 182 0.0 4.8 0.00 0.00 0.00 63 1015.7
20260506150604 13 165 0.0 0.0 0.00 0.00 0.00 65 1015.7
20260506150104 13 166 0.0 3.2 0.00 0.00 0.00 66 1015.6
20260506145604 12 238 1.6 8.0 0.00 0.00 0.00 67 1015.7
20260506145104 12 180 0.0 4.8 0.00 0.00 0.00 68 1015.6
20260506144604 12 202 1.6 4.8 0.00 0.00 0.00 69 1015.5
20260506144104 11 210 0.0 4.8 0.00 0.00 0.00 70 1015.4
20260506143104 11 230 1.6 11.3 0.00 0.00 0.00 72 1015.4
20260506142104 10 225 0.0 8.0 0.00 0.00 0.00 73 1015.3
20260506141604 10 227 1.6 9.7 0.00 0.00 0.00 74 1015.2
20260506141103 10 221 0.0 3.2 0.00 0.00 0.00 74 1015.0
20260506140604 10 224 0.0 0.0 0.00 0.00 0.00 75 1014.9
20260506140104 10 204 0.0 3.2 0.00 0.00 0.00 75 1014.9
20260506135604 10 206 0.0 3.2 0.00 0.00 0.00 76 1014.8
20260506135103 10 169 0.0 3.2 0.00 0.00 0.00 76 1014.9
20260506134103 10 178 0.0 4.8 0.00 0.00 0.00 76 1014.7
20260506133604 10 177 0.0 4.8 0.00 0.00 0.00 76 1014.6
20260506133104 10 233 0.0 3.2 0.00 0.00 0.00 76 1014.6
20260506132603 10 212 0.0 3.2 0.00 0.00 0.00 76 1014.4
20260506132104 10 223 0.0 3.2 0.00 0.00 0.00 76 1014.4
20260506130603 10 196 0.0 8.0 0.00 0.00 0.00 77 1014.4
20260506130104 10 188 0.0 4.8 0.00 0.00 0.00 77 1014.3
20260506125604 10 210 0.0 8.0 0.00 0.00 0.00 76 1014.3
20260506125104 10 216 0.0 3.2 0.00 0.00 0.00 76 1014.3
20260506124604 10 176 0.0 1.6 0.00 0.00 0.00 76 1014.4
20260506124103 10 188 0.0 3.2 0.00 0.00 0.00 76 1014.4
20260506123604 10 211 0.0 3.2 0.00 0.00 0.00 76 1014.4
20260506123104 10 170 0.0 3.2 0.00 0.00 0.00 75 1014.4
20260506122604 10 218 0.0 4.8 0.00 0.00 0.00 75 1014.4
20260506122103 10 195 0.0 4.8 0.00 0.00 0.00 75 1014.3
20260506121604 10 190 0.0 4.8 0.00 0.00 0.00 74 1014.4
20260506120604 10 208 0.0 3.2 0.00 0.00 0.00 74 1014.2
20260506120104 11 227 1.6 4.8 0.00 0.00 0.00 74 1014.2
20260506115604 11 133 0.0 3.2 0.00 0.00 0.00 74 1014.1
20260506115104 11 229 0.0 3.2 0.00 0.00 0.00 74 1014.1
20260506114603 11 210 0.0 3.2 0.00 0.00 0.00 74 1014.1
20260506114104 11 197 0.0 3.2 0.00 0.00 0.00 74 1014.0
20260506113104 11 190 0.0 1.6 0.00 0.00 0.00 74 1013.9
20260506112604 11 174 0.0 3.2 0.00 0.00 0.00 74 1013.8
20260506111604 11 190 0.0 1.6 0.00 0.00 0.00 74 1013.8
20260506111104 11 197 0.0 3.2 0.00 0.00 0.00 74 1013.8
20260506110104 11 194 0.0 3.2 0.00 0.00 0.00 73 1013.8
20260506105603 11 187 0.0 1.6 0.00 0.00 0.00 73 1013.7
20260506105104 11 196 0.0 1.6 0.00 0.00 0.00 73 1013.7
20260506104604 12 196 0.0 3.2 0.00 0.00 0.00 72 1013.6
20260506102604 12 189 0.0 0.0 0.00 0.00 0.00 72 1013.8
20260506102104 12 188 0.0 1.6 0.00 0.00 0.00 72 1013.9
20260506101604 12 187 0.0 1.6 0.00 0.00 0.00 72 1013.9
20260506101104 12 193 0.0 1.6 0.00 0.00 0.00 72 1014.0
20260506100604 12 202 0.0 0.0 0.00 0.00 0.00 72 1014.0
20260506100105 12 197 0.0 0.0 0.00 0.00 0.00 72 1014.0
20260506095604 12 203 0.0 1.6 0.00 0.00 0.00 71 1014.1
20260506095104 12 198 0.0 3.2 0.00 0.00 0.00 71 1014.1
20260506094604 12 219 0.0 3.2 0.00 0.00 0.00 71 1014.0
20260506094104 12 197 0.0 0.0 0.00 0.00 0.00 70 1013.9
20260506093104 12 198 0.0 0.0 0.00 0.00 0.00 70 1013.9
20260506092603 12 211 0.0 4.8 0.00 0.00 0.00 70 1013.9
20260506091104 12 207 0.0 1.6 0.00 0.00 0.00 68 1013.8
20260506090104 12 190 0.0 0.0 0.00 0.00 0.00 66 1013.9
20260506085604 12 189 0.0 0.0 0.00 0.00 0.00 66 1013.9
20260506085103 12 189 0.0 0.0 0.00 0.00 0.00 66 1013.9
20260506084604 12 208 0.0 0.0 0.00 0.00 0.00 65 1013.9
20260506083104 12 205 0.0 0.0 0.00 0.00 0.00 65 1013.7
20260506082603 12 214 0.0 0.0 0.00 0.00 0.00 65 1013.7
20260506082104 12 216 0.0 4.8 0.00 0.00 0.00 64 1013.8
20260506081604 12 277 0.0 0.0 0.00 0.00 0.00 63 1013.8
20260506080604 12 290 0.0 0.0 0.00 0.00 0.00 63 1013.6
20260506080104 12 289 0.0 0.0 0.00 0.00 0.00 62 1013.6
20260506073104 12 290 0.0 0.0 0.00 0.00 0.00 60 1013.5
20260506072603 12 290 0.0 0.0 0.00 0.00 0.00 59 1013.4
20260506071603 12 290 0.0 0.0 0.00 0.00 0.00 58 1013.3
20260506071104 12 290 0.0 0.0 0.00 0.00 0.00 58 1013.3
20260506070604 13 290 0.0 0.0 0.00 0.00 0.00 58 1013.1
20260506070104 13 290 0.0 0.0 0.00 0.00 0.00 57 1013.0
20260506062104 13 290 0.0 0.0 0.00 0.00 0.00 56 1012.5
20260506061604 13 290 0.0 0.0 0.00 0.00 0.00 55 1012.5
20260506061104 13 290 0.0 0.0 0.00 0.00 0.00 55 1012.4
20260506060104 14 290 0.0 0.0 0.00 0.00 0.00 55 1012.2
20260506051104 16 290 0.0 0.0 0.00 0.00 0.00 49 1011.6
20260506050603 16 290 0.0 0.0 0.00 0.00 0.00 49 1011.6
20260506050104 17 290 0.0 0.0 0.00 0.00 0.00 48 1011.5
20260506045104 17 290 0.0 0.0 0.00 0.00 0.00 46 1011.5
20260506044604 17 290 0.0 0.0 0.00 0.00 0.00 46 1011.5
20260506043104 17 290 0.0 0.0 0.00 0.00 0.00 44 1011.4
20260506042604 17 290 0.0 0.0 0.00 0.00 0.00 44 1011.4
20260506042104 18 290 0.0 0.0 0.00 0.00 0.00 44 1011.3
20260506041604 18 290 0.0 0.0 0.00 0.00 0.00 44 1011.2
20260506041104 18 290 0.0 0.0 0.00 0.00 0.00 44 1011.1
20260506040604 18 290 0.0 0.0 0.00 0.00 0.00 45 1011.2
20260506040104 18 290 0.0 0.0 0.00 0.00 0.00 45 1011.2
20260506035104 19 290 0.0 0.0 0.00 0.00 0.00 45 1011.0
20260506034104 19 290 0.0 0.0 0.00 0.00 0.00 44 1010.9
20260506033606 20 290 0.0 0.0 0.00 0.00 0.00 44 1010.9
20260506033104 20 290 0.0 0.0 0.00 0.00 0.00 44 1010.9
20260506032604 20 290 0.0 0.0 0.00 0.00 0.00 44 1010.8
20260506032104 20 287 0.0 0.0 0.00 0.00 0.00 44 1010.8
20260506031604 20 285 0.0 1.6 0.00 0.00 0.00 43 1010.7
20260506030604 20 288 0.0 3.2 0.00 0.00 0.00 43 1010.6
20260506030104 20 238 1.6 4.8 0.00 0.00 0.00 42 1010.4
20260506025604 20 340 0.0 16.1 0.00 0.00 0.00 42 1010.4
20260506025104 21 328 0.0 3.2 0.00 0.00 0.00 41 1010.4
20260506024104 21 305 0.0 0.0 0.00 0.00 0.00 40 1010.1
20260506023604 21 302 0.0 1.6 0.00 0.00 0.00 39 1010.1
20260506023103 21 256 0.0 4.8 0.00 0.00 0.00 39 1010.1
20260506022604 21 285 0.0 4.8 0.00 0.00 0.00 39 1010.2
20260506022104 21 290 0.0 3.2 0.00 0.00 0.00 39 1010.1
20260506021603 21 244 0.0 0.0 0.00 0.00 0.00 38 1010.2
20260506021104 21 245 0.0 4.8 0.00 0.00 0.00 38 1010.2
20260506015604 22 290 0.0 1.6 0.00 0.00 0.00 39 1010.2
20260506015104 22 235 0.0 1.6 0.00 0.00 0.00 39 1010.2
20260506014604 22 235 0.0 4.8 0.00 0.00 0.00 39 1010.1
20260506014104 22 298 0.0 14.5 0.00 0.00 0.00 39 1010.1
20260506013604 22 285 3.2 12.9 0.00 0.00 0.00 38 1010.1
20260506013104 22 254 1.6 8.0 0.00 0.00 0.00 38 1010.1
20260506012604 22 246 1.6 4.8 0.00 0.00 0.00 38 1010.0
20260506012104 22 299 1.6 14.5 0.00 0.00 0.00 37 1010.0
20260506011604 23 334 3.2 8.0 0.00 0.00 0.00 36 1009.9
20260506011104 23 296 1.6 8.0 0.00 0.00 0.00 35 1009.8
20260506010604 23 328 1.6 8.0 0.00 0.00 0.00 35 1009.7
20260506010104 23 264 4.8 19.3 0.00 0.00 0.00 34 1009.7
20260506005104 24 331 0.0 4.8 0.00 0.00 0.00 32 1009.6
20260506004104 24 325 3.2 12.9 0.00 0.00 0.00 31 1009.5
20260506003604 24 321 3.2 11.3 0.00 0.00 0.00 31 1009.5
20260506003104 24 325 3.2 9.7 0.00 0.00 0.00 31 1009.4
20260506002104 23 253 0.0 4.8 0.00 0.00 0.00 31 1009.4
20260506001604 23 330 3.2 19.3 0.00 0.00 0.00 31 1009.4
20260506001104 23 328 1.6 4.8 0.00 0.00 0.00 31 1009.4
20260506000604 24 330 4.8 16.1 0.00 0.00 0.00 29 1009.3
20260506000104 25 322 8.0 16.1 0.00 0.00 0.00 28 1009.3
20260505235604 25 251 0.0 4.8 0.00 0.00 0.00 29 1009.3
20260505234604 25 324 8.0 29.0 0.00 0.00 0.00 28 1009.2
20260505233605 25 328 1.6 12.9 0.00 0.00 0.00 28 1009.2
20260505233104 25 325 3.2 16.1 0.00 0.00 0.00 28 1009.2
20260505232604 25 321 3.2 8.0 0.00 0.00 0.00 28 1009.4
20260505232104 25 315 0.0 8.0 0.00 0.00 0.00 28 1009.3
20260505231604 25 59 0.0 12.9 0.00 0.00 0.00 28 1009.4
20260505231104 25 328 1.6 24.1 0.00 0.00 0.00 28 1009.4
20260505230604 25 317 4.8 14.5 0.00 0.00 0.00 28 1009.3
20260505230104 25 315 0.0 4.8 0.00 0.00 0.00 28 1009.3
20260505225604 25 325 0.0 8.0 0.00 0.00 0.00 27 1009.5
20260505225104 25 350 1.6 9.7 0.00 0.00 0.00 28 1009.4
20260505224604 25 323 1.6 8.0 0.00 0.00 0.00 28 1009.4
20260505224104 25 300 1.6 4.8 0.00 0.00 0.00 27 1009.4
20260505223604 25 319 3.2 14.5 0.00 0.00 0.00 26 1009.5
20260505223104 26 333 0.0 3.2 0.00 0.00 0.00 26 1009.4
20260505222104 25 333 4.8 14.5 0.00 0.00 0.00 27 1009.5
20260505221604 26 331 0.0 3.2 0.00 0.00 0.00 26 1009.5
20260505221104 25 311 0.0 4.8 0.00 0.00 0.00 26 1009.5
20260505220604 25 327 1.6 8.0 0.00 0.00 0.00 27 1009.6
20260505220104 25 320 1.6 9.7 0.00 0.00 0.00 26 1009.6
20260505215604 25 314 1.6 4.8 0.00 0.00 0.00 26 1009.5
20260505215104 25 324 8.0 20.9 0.00 0.00 0.00 27 1009.6
20260505214604 25 315 1.6 8.0 0.00 0.00 0.00 28 1009.7
20260505214104 25 318 6.4 16.1 0.00 0.00 0.00 28 1009.7
20260505212604 25 330 4.8 16.1 0.00 0.00 0.00 28 1009.8
20260505212104 25 325 0.0 4.8 0.00 0.00 0.00 30 1009.8
20260505210604 25 325 6.4 16.1 0.00 0.00 0.00 29 1009.8
20260505210105 25 288 0.0 4.8 0.00 0.00 0.00 29 1009.8
20260505205604 25 330 6.4 12.9 0.00 0.00 0.00 28 1009.7
20260505205104 25 317 3.2 14.5 0.00 0.00 0.00 30 1009.7
20260505204604 25 325 1.6 14.5 0.00 0.00 0.00 29 1009.7
20260505204104 25 310 3.2 16.1 0.00 0.00 0.00 31 1009.6
20260505203604 25 320 1.6 8.0 0.00 0.00 0.00 30 1009.6
20260505202105 25 47 1.6 8.0 0.00 0.00 0.00 32 1009.8
20260505201604 25 312 4.8 14.5 0.00 0.00 0.00 30 1009.9
20260505200604 24 316 1.6 11.3 0.00 0.00 0.00 32 1010.1
20260505200104 24 330 3.2 14.5 0.00 0.00 0.00 33 1010.2
20260505195604 23 49 1.6 4.8 0.00 0.00 0.00 35 1010.2
20260505194604 23 329 3.2 12.9 0.00 0.00 0.00 34 1010.2
20260505194104 23 327 3.2 8.0 0.00 0.00 0.00 34 1010.2
20260505193604 23 335 3.2 9.7 0.00 0.00 0.00 33 1010.4
20260505193104 23 321 1.6 9.7 0.00 0.00 0.00 35 1010.3
20260505192604 23 320 3.2 14.5 0.00 0.00 0.00 35 1010.3
20260505192104 23 336 3.2 14.5 0.00 0.00 0.00 34 1010.3
20260505191604 23 323 0.0 4.8 0.00 0.00 0.00 33 1010.3
20260505191104 23 323 1.6 9.7 0.00 0.00 0.00 33 1010.3
20260505190605 23 313 0.0 9.7 0.00 0.00 0.00 34 1010.3
20260505190104 23 355 0.0 4.8 0.00 0.00 0.00 36 1010.3
20260505185604 22 341 1.6 4.8 0.00 0.00 0.00 35 1010.4
20260505185104 22 329 1.6 4.8 0.00 0.00 0.00 35 1010.3
20260505184604 22 319 4.8 9.7 0.00 0.00 0.00 36 1010.5
20260505184104 22 336 1.6 4.8 0.00 0.00 0.00 37 1010.4
20260505183604 22 315 0.0 0.0 0.00 0.00 0.00 35 1010.5
20260505182604 22 334 0.0 3.2 0.00 0.00 0.00 37 1010.5
20260505182104 21 340 0.0 3.2 0.00 0.00 0.00 35 1010.4
20260505181604 21 345 1.6 4.8 0.00 0.00 0.00 37 1010.4
20260505180604 21 337 0.0 8.0 0.00 0.00 0.00 38 1010.5
20260505180105 21 335 1.6 4.8 0.00 0.00 0.00 37 1010.5
20260505175604 21 69 0.0 3.2 0.00 0.00 0.00 38 1010.5
20260505175104 20 23 0.0 1.6 0.00 0.00 0.00 40 1010.6
20260505174604 20 340 0.0 4.8 0.00 0.00 0.00 39 1010.6
20260505174104 20 46 0.0 3.2 0.00 0.00 0.00 40 1010.6
20260505173604 19 56 0.0 4.8 0.00 0.00 0.00 40 1010.6
20260505173104 19 335 0.0 4.8 0.00 0.00 0.00 41 1010.5
20260505172604 19 338 1.6 4.8 0.00 0.00 0.00 41 1010.5
20260505172104 19 347 0.0 4.8 0.00 0.00 0.00 40 1010.4
20260505171104 19 265 0.0 3.2 0.00 0.00 0.00 41 1010.4
20260505170606 19 250 0.0 3.2 0.00 0.00 0.00 41 1010.5
20260505170104 19 186 0.0 0.0 0.00 0.00 0.00 42 1010.5
20260505165604 18 229 0.0 0.0 0.00 0.00 0.00 42 1010.6
20260505165104 18 170 0.0 0.0 0.00 0.00 0.00 43 1010.6
20260505164104 18 174 0.0 0.0 0.00 0.00 0.00 45 1010.6
20260505163604 17 173 0.0 0.0 0.00 0.00 0.00 45 1010.7
20260505163104 17 236 0.0 0.0 0.00 0.00 0.00 48 1010.6
20260505162604 17 236 0.0 0.0 0.00 0.00 0.00 50 1010.6
20260505162104 16 235 0.0 0.0 0.00 0.00 0.00 52 1010.6
20260505161604 16 236 0.0 0.0 0.00 0.00 0.00 53 1010.5
20260505161104 15 237 0.0 0.0 0.00 0.00 0.00 55 1010.5
20260505160104 13 238 0.0 0.0 0.00 0.00 0.00 63 1010.6
20260505153104 12 238 0.0 0.0 0.00 0.00 0.00 66 1010.7
20260505152604 12 238 0.0 0.0 0.00 0.00 0.00 66 1010.6
20260505152103 12 238 0.0 0.0 0.00 0.00 0.00 66 1010.5
20260505151604 12 238 0.0 0.0 0.00 0.00 0.00 67 1010.4